Regional Weather Roundup
Issued by NWS

Home | Current Version | Previous Version | Text Only | Print | Product List | Glossary Off
Versions: 1 2 3 4 5 6 7 8 9 10 11 12 13 14 15 16 17 18 19 20 21 22 23 24 25 26 27 28 29 30 31 32 33 34 35 36 37 38 39 40 41 42 43 44 45 46 47 48 49 50

054
ASUS45 KBOU 242107
RWRCO

WEATHER ROUNDUP FOR COLORADO
NATIONAL WEATHER SERVICE DENVER/BOULDER CO
300 PM MDT FRI MAR 24 2017

NOTE: "FAIR" INDICATES FEW OR NO CLOUDS BELOW 12000 FEET WITH NO
SIGNIFICANT WEATHER AND/OR OBSTRUCTIONS TO VISIBILITY.

COZ001>005-013-030-031-242200-
...NORTHWEST COLORADO...

CITY           SKY/WX    TMP DP  RH WIND       PRES   REMARKS
CRAIG          FAIR      55  22  27 VRB5      30.16F
HAYDEN         PTSUNNY   52  21  30 W9        30.16F
MEEKER         FAIR      55  26  32 NE7       30.16F
MOUNT WERNER   NOT AVBL
STEAMBOAT SPGS FAIR      49  25  38 W8G18     30.16S
WALDEN         NOT AVBL
$$

COZ006>008-011-242200-
...WEST CENTRAL VALLEYS...

CITY           SKY/WX    TMP DP  RH WIND       PRES   REMARKS
GRAND JUNCTION FAIR      61  29  29 S10       30.13F
MONTROSE       FAIR      55  27  34 MISG      30.16F
EAGLE          MOSUNNY   55  23  28 E10       30.16F
RIFLE          FAIR      57  26  30 SW9       30.13F
DELTA          FAIR      64  28  25 SW17G32   30.11F
NUCLA          FAIR      55  28  35 NW7       30.17F
$$

COZ017>023-064>068-242200-
...SOUTHWEST COLORADO...

CITY           SKY/WX    TMP DP  RH WIND       PRES   REMARKS
DURANGO        FAIR      60  29  30 SW16      30.04F
CORTEZ         FAIR      58  31  35 NW17G23   30.13F
PAGOSA SPRINGS FAIR      50  37  62 E5        30.11F
TELLURIDE      FAIR      40  26  56 W6        30.23F
WOLF CREEK PAS FAIR      34  19  55 CALM      30.26R
$$

COZ009-010-012-014-032>034-037-058>063-242200-
...CENTRAL COLORADO...

CITY           SKY/WX    TMP DP  RH WIND       PRES   REMARKS
ASPEN          CLOUDY    46  29  51 N9        30.16F
BUENA VISTA    FAIR      53  16  22 NW26G36   30.09R
COPPER MTN     CLOUDY    30  21  69 NW9       30.22S WCI  22
BERTHOUD PASS  CLOUDY    19   9  63 NW16G23   30.22S WCI   5
COTTONWOOD PAS PTSUNNY   46  18  31 CALM      30.15R
GUNNISON       FAIR      49  21  33 NW14G22   30.14R
KREMMLING      FAIR      54  21  28 N7        30.18F
LEADVILLE      FAIR      37  16  42 N18G25    30.16R
MONARCH PASS   PTSUNNY   30  21  69 W21G28    30.31R WCI  17
SALIDA         FAIR      57  23  27 E9G25     30.14S
SUNLIGHT       PTSUNNY   30  27  86 W5        30.28F WCI  25
WILKERSON PASS CLOUDY    28  25  86 NE10G22   30.21R WCI  19
$$

COZ069>075-242200-
...SAN LUIS VALLEY/SANGRE DE CRISTO MOUNTAINS...

CITY           SKY/WX    TMP DP  RH WIND       PRES   REMARKS
ALAMOSA        CLOUDY    47  31  53 SE12      30.07R
LA VETA PASS   NOT AVBL
SAGUACHE       FAIR      54  23  30 N18G25    30.09S
$$

COZ035-036-038>040-242200-
...NORTHERN COLORADO FRONT RANGE...

CITY           SKY/WX    TMP DP  RH WIND       PRES   REMARKS
DENVER INTL AP PTSUNNY   50  33  52 N20G29    30.12S
DMNS CITY PARK   N/A     52  29  42 NE22      30.12S
AURORA         PTSUNNY   48  34  57 N17G26    30.13S
FRONT RANGE AP PTSUNNY   46  36  66 N17G29    30.13S
ERIE MUNI ARPT FAIR      57  23  27 N15G28    30.11F
BOULDER MUN AP CLOUDY    55  27  33 NE12G20   30.11S
CENTENNIAL     PTSUNNY   45  33  63 NE12G23   30.13R
BROOMFIELD     NOT AVBL
FORT COLLINS   PTSUNNY   57  25  29 N17       30.10S
LONGMONT       FAIR      60  27  27 NE16G25   30.11F
$$

COZ041-046-047-076>085-087-088-242200-
...PIKES PEAK/PALMER DIVIDE AND SOUTHERN FOOTHILLS...

CITY           SKY/WX    TMP DP  RH WIND       PRES   REMARKS
COLO. SPRINGS  PTSUNNY   44  31  60 N29G38    30.12R
A. F. ACADEMY  CLOUDY    38  31  76 N18G24    30.13R
SCHRIEVER AFB  PTSUNNY   39  31  74 N21G33    30.12R
ELLICOTT       NOT AVBL
FALCON         CLOUDY    38  31  76 N22G30    30.13R
FORT CARSON    CLOUDY    44  31  60 N18G29    30.12R
LIMON          MIX PCPN  37  35  92 N16       30.10R
MONUMENT HILL  PTSUNNY   36  30  80 N15G23    30.15R
TRINIDAD       NOT AVBL
$$

COZ042>045-048>051-090-091-242200-
...NORTHEAST COLORADO...

CITY           SKY/WX    TMP DP  RH WIND       PRES   REMARKS
GREELEY ARPT   PTSUNNY   56  26  31 N21       30.11F
AKRON          PTSUNNY   46  35  65 N24       30.09R
BURLINGTON     CLOUDY    36  35  96 N23G32    30.02S
WRAY           LGT RAIN  41  37  87 N26G38    30.07R
STERLING       FAIR      54  36  50 NE18      30.07S
HOLYOKE        DRIZZLE   46  37  71 NE20G31   30.08R
FORT MORGAN    FAIR      53  30  41 N15G21    30.11S
$$

COZ086-089-092>099-242200-
...SOUTHEAST COLORADO...

CITY           SKY/WX    TMP DP  RH WIND       PRES   REMARKS
PUEBLO         CLOUDY    48  34  58 N15G29    30.13R
LA JUNTA       CLOUDY    43  37  79 N30G43    30.07R
LAMAR          CLOUDY    43  34  70 N26G36    29.99R
SPRINGFIELD      N/A     42  34  73 N41G52    29.94R
$$




USA.gov is the U.S. government's official web portal to all federal, state and local government web resources and services.